QPF
0.00 0.00 0.00 0.00 0.00 0.00 0.01 0.02 0.01 0.01 0.01 0.01 0.01 0.01 0.00 0.00 0.00 0.00 0.00 0.00 0.00 0.00 0.00 0.00 0.01 0.02 0.02 0.03 0.04 0.07 0.08 0.07 0.13 0.15 0.09 0.07 0.07 0.05 0.04 0.03 0.02 0.01 0.01
0.00 0.00 0.00 0.01 0.01 0.02 0.02 0.01 0.01 0.01 0.00 0.00 0.00 0.00 0.00 0.00 0.00 0.00 0.00 0.00 0.00 0.00 0.00 0.00 0.00 0.00 0.00 0.00 0.01 0.02 0.03 0.03 0.07 0.08 0.09 0.07 0.06 0.03 0.01 0.02 0.02 0.01 0.01
0.01 0.01 0.02 0.02 0.02 0.02 0.02 0.01 0.01 0.01 0.01 0.00 0.00 0.00 0.00 0.00 0.00 0.00 0.00 0.00 0.00 0.00 0.00 0.00 0.00 0.00 0.00 0.00 0.00 0.01 0.02 0.02 0.03 0.05 0.07 0.06 0.02 0.02 0.02 0.02 0.01 0.01 0.02
0.03 0.04 0.04 0.04 0.04 0.03 0.02 0.02 0.02 0.02 0.01 0.00 0.01 0.01 0.00 0.00 0.00 0.00 0.00 0.00 0.00 0.00 0.00 0.00 0.00 0.00 0.00 0.00 0.01 0.01 0.02 0.03 0.03 0.03 0.04 0.04 0.04 0.05 0.03 0.01 0.01 0.02 0.02
0.08 0.08 0.06 0.04 0.03 0.03 0.02 0.02 0.02 0.03 0.02 0.01 0.02 0.02 0.00 0.00 0.00 0.00 0.00 0.00 0.00 0.00 0.00 0.00 0.00 0.00 0.00 0.00 0.01 0.01 0.02 0.03 0.04 0.04 0.05 0.05 0.06 0.07 0.07 0.03 0.02 0.02 0.01
0.09 0.08 0.06 0.05 0.03 0.02 0.02 0.02 0.03 0.04 0.03 0.02 0.02 0.02 0.01 0.01 0.00 0.00 0.00 0.00 0.00 0.00 0.00 0.00 0.00 0.00 0.00 0.01 0.01 0.02 0.02 0.03 0.04 0.05 0.07 0.08 0.07 0.05 0.06 0.05 0.03 0.03 0.03
0.06 0.06 0.06 0.05 0.04 0.03 0.03 0.03 0.02 0.02 0.01 0.01 0.01 0.01 0.01 0.01 0.01 0.00 0.00 0.00 0.00 0.00 0.00 0.00 0.00 0.00 0.00 0.01 0.01 0.02 0.02 0.03 0.05 0.06 0.07 0.08 0.08 0.09 0.11 0.10 0.08 0.07 0.08
0.03 0.03 0.02 0.03 0.03 0.03 0.03 0.02 0.02 0.01 0.01 0.00 0.00 0.00 0.00 0.00 0.00 0.00 0.00 0.00 0.00 0.00 0.00 0.00 0.00 0.00 0.00 0.00 0.01 0.02 0.03 0.03 0.04 0.05 0.07 0.10 0.10 0.12 0.14 0.15 0.15 0.13 0.12
0.01 0.01 0.01 0.02 0.02 0.01 0.01 0.01 0.01 0.01 0.00 0.00 0.00 0.00 0.00 0.00 0.00 0.00 0.00 0.00 0.00 0.00 0.00 0.00 0.00 0.00 0.00 0.01 0.02 0.03 0.04 0.05 0.07 0.07 0.09 0.11 0.12 0.14 0.16 0.18 0.20 0.19 0.16
0.01 0.01 0.01 0.01 0.01 0.01 0.00 0.00 0.00 0.00 0.00 0.00 0.00 0.00 0.00 0.00 0.00 0.00 0.00 0.00 0.00 0.00 0.00 0.00 0.00 0.00 0.01 0.01 0.02 0.03 0.04 0.07 0.09 0.10 0.11 0.12 0.13 0.15 0.15 0.17 0.20 0.22 0.23
0.01 0.01 0.01 0.01 0.01 0.00 0.00 0.00 0.00 0.00 0.00 0.00 0.00 0.00 0.00 0.00 0.00 0.00 0.00 0.00 0.00 0.00 0.00 0.00 0.00 0.00 0.01 0.01 0.02 0.03 0.04 0.06 0.09 0.10 0.11 0.11 0.13 0.16 0.16 0.16 0.17 0.19 0.23
0.00 0.00 0.00 0.01 0.01 0.01 0.01 0.01 0.01 0.00 0.00 0.00 0.00 0.00 0.00 0.01 0.01 0.01 0.01 0.01 0.00 0.00 0.00 0.01 0.00 0.00 0.00 0.01 0.02 0.03 0.04 0.06 0.08 0.10 0.12 0.14 0.17 0.20 0.21 0.22 0.21 0.21 0.25
0.00 0.00 0.00 0.01 0.01 0.01 0.01 0.01 0.01 0.01 0.00 0.00 0.00 0.00 0.00 0.00 0.01 0.01 0.01 0.01 0.01 0.01 0.01 0.01 0.01 0.00 0.00 0.01 0.01 0.02 0.04 0.08 0.11 0.12 0.14 0.19 0.22 0.25 0.27 0.29 0.29 0.25 0.25
0.00 0.01 0.01 0.01 0.01 0.01 0.01 0.01 0.01 0.01 0.01 0.01 0.01 0.01 0.01 0.00 0.00 0.01 0.01 0.02 0.02 0.02 0.01 0.01 0.01 0.01 0.00 0.00 0.01 0.03 0.05 0.09 0.12 0.12 0.15 0.24 0.34 0.35 0.30 0.28 0.29 0.28 0.24
0.01 0.01 0.01 0.01 0.01 0.01 0.01 0.02 0.02 0.02 0.02 0.02 0.02 0.02 0.02 0.01 0.01 0.01 0.01 0.02 0.03 0.02 0.02 0.02 0.01 0.01 0.01 0.00 0.01 0.02 0.04 0.06 0.10 0.15 0.16 0.19 0.31 0.36 0.33 0.27 0.24 0.22 0.21
0.01 0.01 0.01 0.01 0.01 0.01 0.01 0.01 0.01 0.01 0.01 0.01 0.01 0.01 0.01 0.01 0.01 0.01 0.02 0.02 0.03 0.04 0.03 0.03 0.02 0.02 0.01 0.00 0.00 0.01 0.03 0.05 0.08 0.13 0.16 0.22 0.27 0.27 0.24 0.24 0.21 0.16 0.14
0.00 0.00 0.00 0.00 0.00 0.00 0.00 0.00 0.01 0.01 0.01 0.01 0.01 0.01 0.01 0.01 0.01 0.02 0.02 0.03 0.04 0.05 0.05 0.05 0.04 0.03 0.01 0.00 0.00 0.01 0.03 0.03 0.04 0.07 0.10 0.15 0.18 0.15 0.12 0.11 0.11 0.09 0.07
0.00 0.00 0.00 0.00 0.00 0.00 0.00 0.00 0.00 0.00 0.00 0.00 0.00 0.00 0.00 0.00 0.00 0.01 0.02 0.04 0.05 0.07 0.08 0.08 0.06 0.05 0.03 0.00 0.00 0.01 0.02 0.02 0.01 0.02 0.03 0.07 0.12 0.10 0.06 0.04 0.04 0.03 0.02
0.00 0.00 0.00 0.00 0.00 0.00 0.00 0.00 0.00 0.00 0.00 0.00 0.00 0.00 0.00 0.00 0.00 0.01 0.03 0.06 0.08 0.10 0.12 0.12 0.11 0.08 0.05 0.01 0.00 0.00 0.01 0.02 0.01 0.01 0.01 0.02 0.04 0.05 0.04 0.02 0.01 0.01 0.01
0.00 0.00 0.00 0.00 0.00 0.00 0.00 0.00 0.00 0.00 0.00 0.00 0.00 0.00 0.01 0.01 0.01 0.01 0.04 0.08 0.13 0.15 0.18 0.19 0.17 0.14 0.09 0.02 0.00 0.00 0.01 0.01 0.01 0.01 0.01 0.01 0.01 0.01 0.01 0.02 0.01 0.00 0.00
0.00 0.00 0.00 0.00 0.00 0.00 0.00 0.00 0.00 0.00 0.00 0.00 0.00 0.01 0.01 0.02 0.02 0.02 0.04 0.11 0.19 0.23 0.25 0.26 0.24 0.20 0.15 0.05 0.00 0.00 0.01 0.01 0.01 0.01 0.01 0.00 0.00 0.00 0.00 0.01 0.01 0.00 0.00
0.00 0.00 0.00 0.00 0.00 0.00 0.00 0.01 0.01 0.01 0.01 0.01 0.01 0.01 0.02 0.01 0.01 0.02 0.04 0.10 0.24 0.34 0.36 0.36 0.33 0.27 0.19 0.07 0.01 0.00 0.00 0.00 0.01 0.01 0.00 0.00 0.00 0.00 0.00 0.00 0.00 0.00 0.00
0.00 0.00 0.00 0.00 0.00 0.00 0.01 0.01 0.01 0.01 0.01 0.02 0.02 0.02 0.02 0.03 0.02 0.02 0.04 0.11 0.25 0.41 0.47 0.46 0.43 0.35 0.24 0.10 0.02 0.00 0.00 0.00 0.01 0.01 0.00 0.00 0.00 0.00 0.00 0.00 0.00 0.00 0.00
0.00 0.00 0.00 0.00 0.00 0.01 0.01 0.01 0.01 0.02 0.02 0.03 0.03 0.02 0.03 0.03 0.03 0.03 0.04 0.13 0.28 0.44 0.52 0.49 0.45 0.41 0.32 0.14 0.03 0.01 0.00 0.00 0.00 0.00 0.00 0.00 0.00 0.00 0.00 0.00 0.00 0.00 0.00
0.00 0.00 0.00 0.01 0.01 0.01 0.01 0.01 0.02 0.03 0.03 0.04 0.04 0.03 0.03 0.03 0.04 0.04 0.06 0.13 0.28 0.42 0.52 0.49 0.43 0.41 0.34 0.17 0.03 0.01 0.00 0.00 0.00 0.00 0.00 0.00 0.00 0.00 0.00 0.00 0.00 0.00 0.00
0.00 0.00 0.01 0.01 0.01 0.01 0.02 0.02 0.03 0.05 0.06 0.06 0.05 0.05 0.05 0.05 0.05 0.06 0.08 0.11 0.22 0.32 0.41 0.46 0.40 0.37 0.32 0.19 0.05 0.01 0.00 0.00 0.00 0.00 0.00 0.00 0.00 0.00 0.00 0.00 0.00 0.00 0.00
MSLP
1008.58 1008.68 1008.78 1008.89 1009.01 1009.18 1009.41 1009.71 1010.08 1010.47 1010.87 1011.23 1011.53 1011.75 1011.88 1011.94 1011.94 1011.92 1011.88 1011.83 1011.78 1011.71 1011.60 1011.46 1011.28 1011.06 1010.82 1010.58 1010.35 1010.15 1009.97 1009.80 1009.63 1009.42 1009.18 1008.88 1008.54 1008.17 1007.81 1007.49 1007.24 1007.09 1007.03
1008.89 1008.97 1009.04 1009.12 1009.21 1009.34 1009.52 1009.77 1010.08 1010.43 1010.78 1011.12 1011.41 1011.64 1011.79 1011.87 1011.90 1011.89 1011.86 1011.81 1011.75 1011.66 1011.55 1011.39 1011.19 1010.96 1010.71 1010.46 1010.22 1010.01 1009.81 1009.62 1009.41 1009.16 1008.86 1008.49 1008.07 1007.62 1007.18 1006.78 1006.45 1006.22 1006.12
1009.44 1009.49 1009.54 1009.58 1009.63 1009.70 1009.81 1009.98 1010.21 1010.48 1010.77 1011.05 1011.30 1011.51 1011.65 1011.74 1011.78 1011.80 1011.78 1011.75 1011.70 1011.62 1011.51 1011.35 1011.15 1010.92 1010.67 1010.42 1010.18 1009.95 1009.72 1009.49 1009.24 1008.94 1008.58 1008.16 1007.67 1007.16 1006.66 1006.20 1005.83 1005.56 1005.41
1010.20 1010.23 1010.24 1010.24 1010.23 1010.23 1010.26 1010.33 1010.45 1010.61 1010.80 1011.01 1011.19 1011.35 1011.47 1011.55 1011.60 1011.63 1011.64 1011.63 1011.60 1011.54 1011.45 1011.32 1011.14 1010.92 1010.68 1010.43 1010.17 1009.92 1009.66 1009.39 1009.08 1008.72 1008.31 1007.83 1007.31 1006.77 1006.24 1005.77 1005.39 1005.11 1004.97
1011.11 1011.11 1011.09 1011.04 1010.97 1010.89 1010.82 1010.78 1010.78 1010.83 1010.91 1011.01 1011.11 1011.20 1011.27 1011.33 1011.36 1011.39 1011.41 1011.42 1011.42 1011.39 1011.33 1011.23 1011.08 1010.89 1010.66 1010.41 1010.15 1009.86 1009.56 1009.22 1008.86 1008.44 1007.97 1007.46 1006.92 1006.38 1005.87 1005.43 1005.09 1004.86 1004.75
1012.10 1012.09 1012.03 1011.92 1011.78 1011.61 1011.45 1011.30 1011.20 1011.12 1011.09 1011.08 1011.08 1011.09 1011.09 1011.09 1011.10 1011.10 1011.11 1011.13 1011.14 1011.14 1011.10 1011.03 1010.92 1010.75 1010.54 1010.29 1010.00 1009.68 1009.33 1008.93 1008.50 1008.03 1007.52 1006.98 1006.45 1005.93 1005.48 1005.11 1004.85 1004.71 1004.68
1013.12 1013.07 1012.97 1012.81 1012.60 1012.36 1012.12 1011.89 1011.68 1011.51 1011.36 1011.25 1011.15 1011.07 1010.98 1010.91 1010.85 1010.81 1010.78 1010.77 1010.77 1010.77 1010.75 1010.70 1010.61 1010.46 1010.26 1010.00 1009.69 1009.33 1008.92 1008.47 1007.97 1007.45 1006.90 1006.36 1005.85 1005.39 1005.02 1004.76 1004.62 1004.60 1004.69
1014.08 1014.00 1013.86 1013.65 1013.40 1013.10 1012.80 1012.50 1012.22 1011.97 1011.74 1011.53 1011.34 1011.16 1010.98 1010.82 1010.67 1010.55 1010.45 1010.39 1010.35 1010.32 1010.28 1010.23 1010.14 1009.99 1009.79 1009.53 1009.19 1008.79 1008.34 1007.83 1007.28 1006.72 1006.15 1005.61 1005.13 1004.74 1004.47 1004.34 1004.34 1004.46 1004.69
1014.95 1014.83 1014.65 1014.40 1014.10 1013.78 1013.44 1013.10 1012.78 1012.48 1012.20 1011.92 1011.65 1011.38 1011.10 1010.83 1010.58 1010.36 1010.17 1010.02 1009.90 1009.82 1009.74 1009.66 1009.55 1009.40 1009.19 1008.91 1008.56 1008.13 1007.64 1007.09 1006.51 1005.92 1005.34 1004.82 1004.38 1004.07 1003.89 1003.88 1004.01 1004.28 1004.64
1015.66 1015.51 1015.29 1015.01 1014.69 1014.34 1013.99 1013.65 1013.32 1012.99 1012.68 1012.36 1012.03 1011.68 1011.31 1010.94 1010.58 1010.24 1009.94 1009.68 1009.48 1009.31 1009.17 1009.05 1008.91 1008.74 1008.52 1008.24 1007.88 1007.45 1006.95 1006.39 1005.79 1005.19 1004.62 1004.12 1003.73 1003.47 1003.38 1003.46 1003.71 1004.09 1004.57
1016.19 1015.99 1015.73 1015.42 1015.09 1014.74 1014.39 1014.06 1013.74 1013.42 1013.09 1012.76 1012.38 1011.97 1011.54 1011.08 1010.62 1010.18 1009.77 1009.41 1009.10 1008.85 1008.64 1008.47 1008.30 1008.11 1007.89 1007.62 1007.28 1006.86 1006.38 1005.84 1005.27 1004.70 1004.15 1003.68 1003.33 1003.11 1003.08 1003.22 1003.53 1003.99 1004.54
1016.49 1016.25 1015.95 1015.61 1015.27 1014.92 1014.58 1014.27 1013.96 1013.66 1013.34 1013.00 1012.61 1012.17 1011.68 1011.16 1010.63 1010.10 1009.61 1009.16 1008.78 1008.45 1008.19 1007.97 1007.78 1007.59 1007.38 1007.14 1006.84 1006.47 1006.05 1005.57 1005.05 1004.53 1004.03 1003.61 1003.29 1003.11 1003.10 1003.26 1003.59 1004.06 1004.63
1016.55 1016.26 1015.91 1015.55 1015.18 1014.84 1014.51 1014.21 1013.92 1013.64 1013.33 1012.99 1012.60 1012.15 1011.65 1011.10 1010.53 1009.96 1009.41 1008.92 1008.48 1008.11 1007.81 1007.56 1007.36 1007.19 1007.01 1006.82 1006.59 1006.31 1005.97 1005.59 1005.16 1004.72 1004.30 1003.93 1003.65 1003.49 1003.48 1003.63 1003.93 1004.37 1004.90
1016.36 1016.01 1015.62 1015.23 1014.84 1014.48 1014.15 1013.85 1013.57 1013.29 1013.00 1012.67 1012.29 1011.85 1011.36 1010.82 1010.25 1009.68 1009.13 1008.62 1008.17 1007.78 1007.47 1007.23 1007.04 1006.89 1006.76 1006.64 1006.49 1006.32 1006.10 1005.84 1005.53 1005.21 1004.89 1004.59 1004.36 1004.22 1004.20 1004.32 1004.56 1004.91 1005.36
1015.94 1015.53 1015.09 1014.66 1014.24 1013.86 1013.52 1013.20 1012.92 1012.64 1012.35 1012.03 1011.67 1011.26 1010.79 1010.29 1009.77 1009.23 1008.72 1008.23 1007.80 1007.43 1007.14 1006.91 1006.74 1006.63 1006.55 1006.50 1006.46 1006.40 1006.31 1006.19 1006.03 1005.84 1005.64 1005.44 1005.27 1005.16 1005.14 1005.21 1005.38 1005.64 1005.98
1015.32 1014.85 1014.38 1013.90 1013.46 1013.04 1012.67 1012.34 1012.03 1011.74 1011.44 1011.13 1010.79 1010.41 1010.00 1009.55 1009.09 1008.62 1008.16 1007.73 1007.35 1007.01 1006.74 1006.54 1006.40 1006.32 1006.30 1006.32 1006.36 1006.41 1006.46 1006.49 1006.48 1006.44 1006.37 1006.28 1006.20 1006.14 1006.12 1006.16 1006.27 1006.44 1006.68
1014.56 1014.04 1013.53 1013.02 1012.54 1012.10 1011.70 1011.33 1010.99 1010.68 1010.38 1010.07 1009.74 1009.40 1009.04 1008.66 1008.27 1007.88 1007.49 1007.13 1006.80 1006.51 1006.27 1006.08 1005.97 1005.91 1005.93 1006.00 1006.12 1006.27 1006.44 1006.60 1006.74 1006.84 1006.91 1006.95 1006.96 1006.97 1006.97 1007.01 1007.08 1007.20 1007.35
1013.71 1013.16 1012.61 1012.09 1011.58 1011.12 1010.68 1010.29 1009.93 1009.59 1009.27 1008.96 1008.65 1008.34 1008.03 1007.71 1007.39 1007.07 1006.76 1006.45 1006.17 1005.91 1005.70 1005.53 1005.42 1005.39 1005.42 1005.53 1005.70 1005.92 1006.18 1006.46 1006.72 1006.96 1007.16 1007.32 1007.44 1007.52 1007.58 1007.64 1007.71 1007.80 1007.91
1012.83 1012.26 1011.70 1011.16 1010.65 1010.16 1009.71 1009.29 1008.91 1008.55 1008.22 1007.90 1007.60 1007.32 1007.04 1006.78 1006.51 1006.25 1005.99 1005.74 1005.49 1005.27 1005.07 1004.91 1004.81 1004.77 1004.81 1004.94 1005.14 1005.41 1005.74 1006.09 1006.46 1006.81 1007.12 1007.39 1007.61 1007.78 1007.91 1008.01 1008.11 1008.21 1008.31
1011.95 1011.37 1010.81 1010.27 1009.76 1009.27 1008.81 1008.38 1007.98 1007.61 1007.27 1006.95 1006.66 1006.39 1006.15 1005.91 1005.68 1005.47 1005.25 1005.03 1004.82 1004.61 1004.42 1004.28 1004.18 1004.15 1004.19 1004.33 1004.55 1004.85 1005.22 1005.63 1006.06 1006.49 1006.89 1007.24 1007.54 1007.79 1007.99 1008.16 1008.30 1008.43 1008.57
1011.10 1010.52 1009.96 1009.43 1008.92 1008.43 1007.97 1007.53 1007.13 1006.75 1006.41 1006.09 1005.81 1005.55 1005.32 1005.11 1004.91 1004.71 1004.52 1004.33 1004.14 1003.96 1003.80 1003.68 1003.60 1003.59 1003.65 1003.80 1004.04 1004.36 1004.76 1005.20 1005.67 1006.14 1006.59 1007.00 1007.36 1007.67 1007.93 1008.15 1008.34 1008.53 1008.70
1010.26 1009.68 1009.13 1008.60 1008.09 1007.60 1007.14 1006.71 1006.31 1005.93 1005.59 1005.28 1005.01 1004.76 1004.53 1004.33 1004.14 1003.96 1003.79 1003.63 1003.48 1003.34 1003.22 1003.15 1003.12 1003.15 1003.26 1003.45 1003.72 1004.06 1004.47 1004.93 1005.41 1005.90 1006.36 1006.79 1007.18 1007.53 1007.83 1008.09 1008.33 1008.55 1008.77
1009.44 1008.85 1008.28 1007.74 1007.23 1006.74 1006.28 1005.85 1005.45 1005.08 1004.75 1004.45 1004.17 1003.93 1003.71 1003.51 1003.34 1003.17 1003.03 1002.91 1002.80 1002.72 1002.68 1002.68 1002.73 1002.85 1003.03 1003.28 1003.60 1003.97 1004.40 1004.86 1005.34 1005.82 1006.27 1006.70 1007.09 1007.44 1007.76 1008.04 1008.31 1008.57 1008.82
1008.62 1008.00 1007.41 1006.85 1006.31 1005.80 1005.33 1004.89 1004.50 1004.14 1003.81 1003.52 1003.25 1003.02 1002.80 1002.61 1002.45 1002.31 1002.20 1002.12 1002.09 1002.09 1002.15 1002.25 1002.42 1002.64 1002.92 1003.25 1003.64 1004.05 1004.50 1004.97 1005.42 1005.88 1006.30 1006.70 1007.07 1007.41 1007.73 1008.02 1008.30 1008.58 1008.85
1007.80 1007.14 1006.50 1005.89 1005.32 1004.78 1004.28 1003.84 1003.44 1003.08 1002.77 1002.48 1002.23 1002.00 1001.79 1001.61 1001.47 1001.35 1001.29 1001.27 1001.31 1001.41 1001.58 1001.80 1002.10 1002.45 1002.84 1003.27 1003.72 1004.19 1004.66 1005.11 1005.55 1005.97 1006.36 1006.73 1007.07 1007.39 1007.70 1007.99 1008.28 1008.57 1008.86
1006.99 1006.27 1005.57 1004.90 1004.28 1003.70 1003.17 1002.71 1002.31 1001.96 1001.65 1001.37 1001.13 1000.91 1000.72 1000.55 1000.42 1000.34 1000.32 1000.36 1000.48 1000.67 1000.95 1001.30 1001.71 1002.18 1002.68 1003.20 1003.72 1004.22 1004.71 1005.16 1005.58 1005.97 1006.33 1006.66 1006.97 1007.28 1007.58 1007.89 1008.19 1008.50 1008.81
Thickness
5808 5807 5805 5802 5798 5791 5785 5778 5774 5769 5764 5759 5755 5751 5750 5749 5748 5746 5742 5738 5736 5735 5732 5733 5733 5731 5732 5731 5730 5730 5729 5729 5730 5726 5728 5735 5740 5743 5746 5747 5747 5750 5751
5796 5795 5793 5791 5786 5780 5774 5769 5765 5762 5757 5753 5749 5746 5744 5744 5743 5740 5736 5733 5731 5729 5730 5727 5725 5726 5723 5721 5721 5720 5720 5724 5725 5721 5720 5724 5732 5740 5746 5746 5745 5747 5749
5786 5784 5782 5778 5773 5767 5764 5761 5756 5753 5750 5747 5745 5740 5737 5736 5737 5735 5732 5730 5726 5724 5722 5720 5718 5717 5715 5716 5714 5712 5711 5713 5718 5719 5715 5715 5723 5735 5744 5745 5745 5745 5745
5778 5773 5768 5762 5758 5757 5757 5752 5746 5744 5742 5739 5737 5735 5731 5730 5730 5727 5727 5724 5722 5719 5717 5714 5712 5710 5710 5708 5707 5708 5705 5703 5707 5712 5714 5716 5720 5718 5725 5736 5742 5741 5739
5761 5756 5753 5750 5749 5749 5746 5743 5740 5737 5735 5732 5731 5727 5727 5728 5727 5724 5721 5718 5719 5715 5713 5710 5707 5705 5704 5702 5699 5697 5696 5696 5698 5701 5706 5709 5712 5713 5711 5718 5729 5735 5738
5746 5742 5740 5738 5736 5737 5736 5735 5732 5729 5728 5727 5725 5722 5721 5719 5717 5715 5715 5714 5715 5712 5710 5706 5702 5700 5699 5697 5694 5692 5691 5690 5691 5693 5696 5700 5703 5709 5711 5712 5717 5723 5731
5728 5726 5724 5722 5721 5721 5722 5723 5722 5720 5720 5720 5718 5717 5714 5712 5710 5709 5710 5708 5709 5708 5705 5702 5697 5696 5694 5692 5690 5688 5688 5687 5686 5687 5690 5695 5700 5705 5707 5708 5713 5717 5721
5714 5711 5709 5708 5707 5707 5706 5707 5707 5707 5708 5709 5709 5709 5707 5707 5708 5706 5704 5704 5703 5702 5699 5695 5692 5691 5690 5689 5687 5686 5685 5685 5684 5685 5686 5688 5694 5699 5701 5703 5704 5704 5707
5701 5699 5698 5696 5695 5693 5692 5691 5691 5691 5693 5695 5696 5697 5697 5697 5698 5697 5696 5698 5697 5695 5693 5690 5688 5687 5686 5685 5683 5684 5683 5682 5682 5683 5684 5686 5690 5694 5697 5699 5699 5696 5694
5689 5686 5684 5682 5681 5680 5678 5677 5676 5676 5676 5678 5679 5683 5684 5686 5687 5688 5689 5689 5689 5687 5685 5684 5683 5682 5682 5681 5680 5680 5681 5680 5680 5680 5681 5683 5686 5689 5692 5694 5695 5695 5691
5675 5673 5670 5668 5666 5665 5664 5662 5662 5661 5661 5662 5663 5665 5668 5672 5675 5677 5680 5681 5681 5681 5679 5678 5678 5677 5677 5676 5674 5674 5675 5675 5676 5676 5677 5678 5681 5683 5685 5687 5688 5688 5685
5664 5661 5658 5654 5651 5649 5648 5646 5646 5645 5645 5646 5646 5648 5651 5656 5659 5664 5667 5671 5672 5673 5673 5673 5672 5672 5672 5670 5669 5668 5669 5668 5668 5669 5669 5671 5673 5675 5676 5677 5677 5676 5675
5649 5646 5642 5638 5635 5633 5631 5629 5629 5628 5628 5628 5629 5630 5632 5637 5642 5647 5653 5658 5662 5664 5666 5666 5666 5666 5665 5664 5663 5662 5662 5661 5660 5661 5661 5661 5663 5663 5664 5665 5665 5663 5661
5628 5626 5623 5620 5618 5615 5614 5613 5612 5612 5612 5611 5611 5613 5615 5619 5624 5630 5637 5644 5649 5653 5656 5659 5660 5660 5660 5659 5658 5656 5655 5654 5653 5652 5651 5652 5653 5652 5652 5652 5652 5650 5648
5616 5613 5610 5608 5606 5604 5602 5601 5599 5598 5597 5596 5596 5598 5600 5604 5608 5614 5620 5627 5634 5641 5646 5650 5652 5654 5654 5654 5651 5649 5648 5646 5644 5642 5641 5641 5641 5640 5641 5641 5639 5639 5638
5608 5605 5601 5598 5594 5591 5588 5586 5584 5583 5582 5581 5582 5584 5586 5588 5592 5597 5603 5610 5617 5625 5633 5639 5643 5646 5649 5642 5639 5639 5641 5639 5637 5634 5631 5629 5629 5628 5628 5628 5628 5629 5629
5594 5588 5583 5578 5574 5571 5568 5565 5564 5562 5562 5561 5562 5563 5566 5570 5574 5578 5584 5591 5599 5608 5616 5625 5632 5636 5636 5631 5630 5629 5633 5632 5629 5626 5624 5623 5620 5618 5618 5617 5617 5617 5618
5573 5567 5561 5557 5553 5551 5547 5544 5543 5541 5540 5540 5541 5542 5544 5548 5553 5557 5563 5571 5579 5588 5598 5607 5617 5624 5626 5622 5620 5621 5625 5624 5621 5619 5617 5615 5612 5611 5611 5612 5611 5609 5609
5553 5547 5543 5539 5537 5535 5533 5532 5530 5528 5527 5526 5526 5526 5527 5530 5532 5537 5543 5551 5558 5568 5579 5590 5601 5610 5613 5611 5611 5611 5618 5616 5614 5612 5610 5609 5606 5601 5603 5604 5603 5601 5600
5538 5534 5533 5531 5530 5529 5528 5526 5525 5523 5522 5521 5519 5519 5518 5519 5520 5523 5528 5534 5541 5550 5561 5573 5585 5596 5603 5601 5602 5601 5612 5610 5608 5605 5602 5600 5599 5594 5596 5598 5597 5595 5594
5530 5529 5529 5528 5527 5525 5523 5521 5520 5520 5519 5519 5518 5517 5516 5515 5516 5517 5520 5524 5530 5538 5547 5558 5571 5583 5592 5591 5592 5594 5605 5606 5604 5601 5599 5595 5588 5587 5589 5592 5593 5591 5592
5528 5526 5526 5526 5524 5521 5518 5518 5517 5516 5514 5514 5514 5514 5513 5514 5518 5518 5520 5521 5524 5531 5539 5547 5559 5570 5580 5584 5583 5586 5591 5597 5599 5598 5597 5589 5581 5581 5584 5587 5585 5586 5590
5525 5524 5522 5521 5519 5516 5513 5511 5511 5508 5507 5507 5507 5508 5510 5511 5512 5515 5518 5520 5523 5527 5534 5540 5549 5559 5570 5576 5576 5577 5581 5586 5592 5592 5586 5580 5575 5575 5578 5577 5580 5583 5591
5523 5521 5518 5516 5513 5509 5505 5502 5501 5498 5498 5498 5499 5501 5504 5507 5510 5511 5516 5520 5523 5526 5529 5532 5539 5549 5560 5570 5572 5573 5575 5576 5581 5580 5572 5571 5571 5576 5574 5573 5578 5586 5591
5519 5515 5511 5507 5503 5500 5496 5493 5491 5489 5488 5489 5491 5493 5497 5501 5505 5510 5512 5517 5519 5521 5521 5526 5530 5541 5552 5564 5572 5577 5577 5580 5582 5576 5576 5576 5576 5578 5579 5581 5584 5586 5586
5514 5509 5503 5498 5494 5490 5487 5484 5482 5480 5480 5481 5483 5486 5490 5494 5500 5505 5510 5511 5511 5510 5510 5515 5523 5533 5544 5552 5560 5567 5571 5572 5571 5576 5578 5579 5581 5582 5582 5583 5583 5585 5586